Retour au catalogue

SL-6 R/B(2)

ActifHEO
NORAD 16186·ROCKET BODY·🇷🇺 Russia

Lancé Oct 22, 1985 depuis Plesetsk Cosmodrome

Loading…

Prochains Passages (prochaines 24 heures)

TLE

VieillissantSource: Space-Track

Époque: Sep 4, 2026, 06:35 UTC

1 16186U 85098D   26247.27478675 -.00000656  00000-0  00000-0 0  9997
2 16186  71.4864   3.6970 5572737 339.9754   7.6769  2.03413820303458

Suivez SL-6 R/B(2) en temps réel avec AllMySat

Download on the App Store